TimeEST,TemperatureF,Dew PointF,Humidity,Sea Level PressureIn,VisibilityMPH,Wind Direction,Wind SpeedMPH,Gust SpeedMPH,PrecipitationIn,Events,Conditions,WindDirDegrees,DateUTC
12:15 AM,35.6,29.8,80,29.95,10.0,East,4.6,-,N/A,,Overcast,100,2012-11-07 05:15:00
12:35 AM,35.6,29.8,80,29.95,10.0,Calm,Calm,-,N/A,,Overcast,0,2012-11-07 05:35:00
12:55 AM,35.2,30.0,81,29.95,10.0,East,3.5,-,N/A,,Overcast,100,2012-11-07 05:55:00
1:15 AM,35.4,30.0,81,29.95,10.0,East,4.6,-,N/A,,Overcast,100,2012-11-07 06:15:00
1:35 AM,35.6,30.2,81,29.95,10.0,East,4.6,-,N/A,,Overcast,100,2012-11-07 06:35:00
1:55 AM,35.6,31.1,84,29.96,10.0,ESE,4.6,-,N/A,,Overcast,110,2012-11-07 06:55:00
2:15 AM,35.6,31.6,85,29.96,10.0,East,5.8,-,N/A,,Overcast,100,2012-11-07 07:15:00
2:35 AM,35.6,31.8,86,29.96,10.0,East,4.6,-,N/A,,Overcast,90,2012-11-07 07:35:00
2:55 AM,35.1,31.5,87,29.96,10.0,East,5.8,-,N/A,,Overcast,80,2012-11-07 07:55:00
3:15 AM,34.9,31.1,86,29.96,10.0,East,5.8,-,N/A,,Overcast,90,2012-11-07 08:15:00
3:55 AM,34.3,30.6,86,29.97,10.0,East,4.6,-,N/A,,Overcast,90,2012-11-07 08:55:00
4:15 AM,33.8,30.4,87,29.97,10.0,ENE,5.8,-,N/A,,Overcast,70,2012-11-07 09:15:00
4:35 AM,33.8,30.0,86,29.97,10.0,East,8.1,-,N/A,,Overcast,80,2012-11-07 09:35:00
4:55 AM,33.4,29.7,86,29.98,10.0,ENE,3.5,-,N/A,,Overcast,70,2012-11-07 09:55:00
5:15 AM,32.0,28.4,87,29.98,10.0,ENE,4.6,-,N/A,,Overcast,70,2012-11-07 10:15:00
5:35 AM,31.8,27.9,85,29.99,10.0,ENE,3.5,-,N/A,,Overcast,70,2012-11-07 10:35:00
5:55 AM,31.8,27.5,84,29.99,10.0,Calm,Calm,-,N/A,,Overcast,0,2012-11-07 10:55:00
6:15 AM,31.8,27.5,84,30.00,10.0,ENE,5.8,-,N/A,,Overcast,60,2012-11-07 11:15:00
6:35 AM,30.9,26.6,84,30.00,10.0,ENE,3.5,-,N/A,,Mostly Cloudy,60,2012-11-07 11:35:00
6:55 AM,30.2,26.6,86,30.00,10.0,ENE,4.6,-,N/A,,Scattered Clouds,60,2012-11-07 11:55:00
7:15 AM,30.2,26.4,86,30.01,10.0,NE,4.6,-,N/A,,Clear,50,2012-11-07 12:15:00
7:35 AM,29.7,26.2,87,30.01,10.0,NE,4.6,-,N/A,,Clear,50,2012-11-07 12:35:00
7:55 AM,30.7,27.1,86,30.02,10.0,NE,3.5,-,N/A,,Clear,50,2012-11-07 12:55:00
8:15 AM,32.0,27.9,85,30.02,10.0,Calm,Calm,-,N/A,,Clear,0,2012-11-07 13:15:00
8:35 AM,33.1,28.4,83,30.02,10.0,NE,4.6,-,N/A,,Clear,50,2012-11-07 13:35:00
8:55 AM,34.5,28.8,79,30.03,10.0,NE,4.6,-,N/A,,Clear,50,2012-11-07 13:55:00
9:15 AM,36.0,29.1,76,30.03,10.0,ENE,5.8,-,N/A,,Clear,60,2012-11-07 14:15:00
9:35 AM,37.4,28.9,71,30.04,10.0,ENE,5.8,-,N/A,,Clear,70,2012-11-07 14:35:00
9:55 AM,38.7,29.5,70,30.05,10.0,East,6.9,-,N/A,,Clear,80,2012-11-07 14:55:00
10:15 AM,40.1,29.5,66,30.05,10.0,East,6.9,-,N/A,,Clear,80,2012-11-07 15:15:00
10:35 AM,41.0,29.7,64,30.06,10.0,ENE,6.9,-,N/A,,Clear,60,2012-11-07 15:35:00
10:55 AM,42.1,30.2,63,30.06,10.0,NE,8.1,-,N/A,,Clear,40,2012-11-07 15:55:00
11:15 AM,42.8,29.8,60,30.06,10.0,NE,8.1,-,N/A,,Clear,50,2012-11-07 16:15:00
11:35 AM,43.3,29.8,59,30.06,10.0,NE,5.8,-,N/A,,Clear,40,2012-11-07 16:35:00
11:55 AM,44.4,30.0,57,30.06,10.0,NE,3.5,-,N/A,,Clear,40,2012-11-07 16:55:00
12:15 PM,44.8,29.5,55,30.06,10.0,NNE,4.6,-,N/A,,Clear,30,2012-11-07 17:15:00
12:35 PM,45.5,29.1,53,30.05,10.0,NE,5.8,-,N/A,,Clear,50,2012-11-07 17:35:00
12:55 PM,45.9,28.9,52,30.04,10.0,East,4.6,-,N/A,,Clear,90,2012-11-07 17:55:00
1:15 PM,46.6,29.5,51,30.04,10.0,ENE,6.9,-,N/A,,Clear,70,2012-11-07 18:15:00
1:35 PM,46.6,29.5,51,30.04,10.0,NE,5.8,-,N/A,,Clear,40,2012-11-07 18:35:00
1:55 PM,46.9,30.0,52,30.03,10.0,Calm,Calm,-,N/A,,Clear,0,2012-11-07 18:55:00
2:15 PM,47.7,30.4,51,30.03,10.0,NE,3.5,-,N/A,,Clear,50,2012-11-07 19:15:00
2:35 PM,47.1,30.0,51,30.03,10.0,NE,5.8,-,N/A,,Clear,40,2012-11-07 19:35:00
2:55 PM,47.5,30.0,51,30.03,10.0,NNE,5.8,-,N/A,,Clear,20,2012-11-07 19:55:00
3:15 PM,46.9,28.8,49,30.03,10.0,Calm,Calm,-,N/A,,Clear,0,2012-11-07 20:15:00
3:35 PM,47.3,29.8,51,30.03,10.0,Calm,Calm,-,N/A,,Clear,0,2012-11-07 20:35:00
3:55 PM,47.3,28.9,49,30.04,10.0,East,3.5,-,N/A,,Clear,80,2012-11-07 20:55:00
4:15 PM,47.3,29.8,51,30.05,10.0,East,4.6,-,N/A,,Clear,80,2012-11-07 21:15:00
4:40 PM,46.4,30.2,53,30.06,10.0,NNE,4.6,-,N/A,,Clear,30,2012-11-07 21:40:00
4:55 PM,45.0,30.2,56,30.06,10.0,North,3.5,-,N/A,,Clear,10,2012-11-07 21:55:00
5:15 PM,43.5,30.6,60,30.07,10.0,North,3.5,-,N/A,,Clear,10,2012-11-07 22:15:00
5:35 PM,42.8,30.4,62,30.07,10.0,North,3.5,-,N/A,,Clear,10,2012-11-07 22:35:00
5:55 PM,42.3,30.6,63,30.08,10.0,Calm,Calm,-,N/A,,Clear,0,2012-11-07 22:55:00
6:15 PM,40.6,30.2,66,30.08,10.0,North,3.5,-,N/A,,Clear,10,2012-11-07 23:15:00
6:35 PM,39.2,30.4,71,30.09,10.0,Calm,Calm,-,N/A,,Clear,0,2012-11-07 23:35:00
6:55 PM,38.5,29.3,70,30.09,10.0,Calm,Calm,-,N/A,,Clear,0,2012-11-07 23:55:00
7:15 PM,34.7,28.6,78,30.09,10.0,Calm,Calm,-,N/A,,Clear,0,2012-11-08 00:15:00
7:35 PM,36.3,31.1,81,30.10,10.0,Calm,Calm,-,N/A,,Clear,0,2012-11-08 00:35:00
7:55 PM,35.8,30.9,82,30.10,10.0,Calm,Calm,-,N/A,,Clear,0,2012-11-08 00:55:00
8:15 PM,35.4,30.7,83,30.11,10.0,Calm,Calm,-,N/A,,Clear,0,2012-11-08 01:15:00
8:35 PM,33.3,29.8,87,30.11,10.0,Calm,Calm,-,N/A,,Clear,0,2012-11-08 01:35:00
8:55 PM,32.9,29.8,88,30.12,10.0,Calm,Calm,-,N/A,,Clear,0,2012-11-08 01:55:00
9:15 PM,31.5,28.8,90,30.13,10.0,Calm,Calm,-,N/A,,Clear,0,2012-11-08 02:15:00
9:35 PM,30.7,27.7,88,30.13,10.0,Calm,Calm,-,N/A,,Clear,0,2012-11-08 02:35:00
9:55 PM,32.0,29.7,91,30.13,10.0,Calm,Calm,-,N/A,,Clear,0,2012-11-08 02:55:00
10:15 PM,32.0,29.8,92,30.13,10.0,Calm,Calm,-,N/A,,Clear,0,2012-11-08 03:15:00
10:35 PM,31.6,29.1,90,30.13,7.0,Calm,Calm,-,N/A,,Clear,0,2012-11-08 03:35:00
10:55 PM,30.7,28.8,92,30.14,7.0,Calm,Calm,-,N/A,,Clear,0,2012-11-08 03:55:00
11:15 PM,31.1,29.1,92,30.13,7.0,Calm,Calm,-,N/A,,Clear,0,2012-11-08 04:15:00
11:35 PM,26.6,25.2,94,30.13,7.0,Calm,Calm,-,N/A,,Clear,0,2012-11-08 04:35:00
11:55 PM,27.5,25.9,94,30.14,5.0,Calm,Calm,-,N/A,,Clear,0,2012-11-08 04:55:00